Banff, Alberta

7:21 AM MDT on July 23, 2017 (GMT -0600)
Banff

Weather History for CWZG - March, 2013

Change the Weather History Date:

Monday, March 18, 2013

  Actual Average Record
Temperature  
Mean Temperature 16 °F -  
Max Temperature 27 °F - - ()
Min Temperature 6 °F - - ()
Degree Days  
Heating Degree Days 48    
Moisture  
Dew Point 10 °F    
Average Humidity 73    
Maximum Humidity 91    
Minimum Humidity 41    
Precipitation  
Precipitation 0.00 in - - ()
Sea Level Pressure  
Sea Level Pressure 29.92 in    
Wind  
Wind Speed 3 mph ()    
Max Wind Speed 9 mph    
Max Gust Speed -    
T = Trace of Precipitation, MM = Missing Value Source: Averaged Metar Reports

Daily Weather History Graph

Daily Weather History Graph

Search for Another Location

Airport or City:

Trip Planner

Search our weather history database for the weather conditions in past years. The results will help you decide how hot, cold, wet, or windy it might be!

Date:

Astronomy

Mar. 18, 2013 Rise Set
Actual Time 7:48 AM MDT 7:52 PM MDT
Civil Twilight 7:15 AM MDT 8:25 PM MDT
Nautical Twilight 6:36 AM MDT 9:04 PM MDT
Astronomical Twilight 5:56 AM MDT 9:45 PM MDT
Moon 11:13 AM MDT (3/18) 2:33 AM MDT (3/18)
Length of Visible Light 13h 10m
Length of Day
12h 04m
Waxing Crescent, 41% of the Moon is Illuminated
Mar 18
Waxing Crescent
Mar 19
First Quarter
Mar 27
Full
Apr 2
Last Quarter
Apr 10
New

Hourly Weather History & Observations

Time (MDT) Temp. Windchill Dew Point Humidity Pressure Visibility Wind Dir Wind Speed Gust Speed Precip Events Conditions
12:00 AM 8.6 °F - 5.7 °F 88% 29.96 in - North 1.2 mph - N/A   Unknown
1:00 AM 6.6 °F - 3.7 °F 88% 29.94 in - NE 1.2 mph - N/A   Unknown
2:00 AM 6.6 °F - 3.6 °F 87% 29.92 in - Calm Calm - N/A   Unknown
3:00 AM 11.3 °F 5.1 °F 9.0 °F 90% 29.88 in - WSW 3.5 mph - N/A   Unknown
4:00 AM 15.3 °F 9.6 °F 12.4 °F 88% 29.85 in - SW 3.5 mph - N/A   Unknown
5:00 AM 15.4 °F 8.1 °F 12.2 °F 87% 29.83 in - SW 4.6 mph - N/A   Unknown
6:00 AM 17.2 °F 8.9 °F 13.3 °F 84% 29.81 in - SW 5.8 mph - N/A   Unknown
7:00 AM 18.3 °F 13.1 °F 14.2 °F 84% 29.82 in - West 3.5 mph - N/A   Unknown
8:00 AM 18.7 °F 11.9 °F 14.7 °F 85% 29.84 in - SW 4.6 mph - N/A   Unknown
9:00 AM 19.0 °F 9.0 °F 16.7 °F 91% 29.86 in - SW 8.1 mph - N/A   Unknown
10:00 AM 22.5 °F 14.1 °F 16.5 °F 78% 29.87 in - WSW 6.9 mph - N/A   Unknown
11:00 AM 25.5 °F 16.2 °F 9.1 °F 50% 29.88 in - SW 9.2 mph - N/A   Unknown
12:00 PM 27.0 °F 18.7 °F 6.3 °F 42% 29.88 in - West 8.1 mph - N/A   Unknown
1:00 PM 26.6 °F 19.1 °F 9.9 °F 49% 29.89 in - WSW 6.9 mph - N/A   Unknown
2:00 PM 27.7 °F 19.6 °F 6.6 °F 41% 29.88 in - WSW 8.1 mph - N/A   Unknown
3:00 PM 26.8 °F 20.2 °F 8.8 °F 47% 29.87 in - West 5.8 mph - N/A   Unknown
4:00 PM 23.7 °F 19.3 °F 13.3 °F 64% 29.91 in - WNW 3.5 mph - N/A   Unknown
5:00 PM 25.5 °F - 9.1 °F 50% 29.93 in - North 2.3 mph - N/A   Unknown
6:00 PM 24.3 °F 17.3 °F 12.4 °F 61% 29.94 in - SW 5.8 mph - N/A   Unknown
7:00 PM 22.3 °F 17.6 °F 12.6 °F 66% 29.97 in - SSW 3.5 mph - N/A   Unknown
8:00 PM 18.5 °F - 12.2 °F 76% 30.02 in - East 1.2 mph - N/A   Unknown
9:00 PM 12.4 °F - 8.4 °F 84% 30.06 in - ENE 1.2 mph - N/A   Unknown
10:00 PM 9.3 °F 2.8 °F 6.3 °F 87% 30.10 in - ENE 3.5 mph - N/A   Unknown
11:00 PM 6.6 °F - 3.7 °F 88% 30.12 in - ESE 1.2 mph - N/A   Unknown